Dewpoint
43 45 46 47 49 49 50 51 51 52 52 52 52 53 54 54 53 55 56 57 58 59 59 59 60 61 61 61 61 61 60 61 63 63 64 63 63 65 65 64 64 64 64 63 63 62 60 60 60 60 60 63
40 41 43 43 46 46 47 48 49 49 50 50 50 50 50 50 50 52 53 54 55 57 57 57 57 59 60 61 61 61 60 60 61 63 63 63 63 63 63 63 63 63 62 62 61 60 60 60 59 59 59 63
33 39 39 40 42 43 43 45 46 46 47 47 47 47 47 47 47 48 50 51 51 53 54 55 56 57 59 60 61 61 60 61 61 63 63 62 62 62 63 63 63 62 62 61 60 60 59 58 57 58 60 62
28 35 36 36 38 39 41 42 42 43 43 44 43 44 45 45 43 44 44 48 46 50 50 52 53 55 58 59 59 60 61 61 62 62 62 62 62 62 62 62 61 61 61 60 60 59 58 57 58 59 58 60
28 31 33 34 35 37 38 39 39 40 40 39 40 41 42 42 39 40 41 41 42 46 45 49 52 53 54 58 59 59 59 61 62 62 62 61 62 61 60 60 60 60 60 60 58 57 56 57 59 59 59 59
30 29 29 25 26 30 32 36 37 34 34 37 32 38 38 38 38 38 39 40 43 42 44 46 49 50 52 55 56 56 57 60 60 61 61 60 60 59 59 59 57 57 58 57 57 56 56 57 57 57 59 59
28 24 23 24 24 27 31 33 33 31 32 32 31 32 34 37 37 37 38 38 41 42 44 44 47 48 50 51 54 54 55 59 59 59 59 59 58 58 57 56 55 56 56 55 57 56 56 56 57 57 58 58
21 23 22 22 22 22 23 25 28 28 29 30 30 31 32 33 35 36 36 39 41 41 40 42 44 46 46 47 50 50 51 54 58 57 57 56 56 56 55 54 54 54 55 55 55 54 54 54 55 56 56 57
19 21 20 21 20 21 23 23 23 23 24 27 28 28 30 33 33 34 34 35 36 37 39 40 40 42 42 43 46 48 49 50 53 55 54 53 53 53 53 53 53 54 54 54 54 54 54 55 54 54 55 56
19 19 18 20 20 20 21 23 21 21 20 22 25 26 27 30 31 30 31 32 34 36 37 38 39 40 41 42 43 45 47 48 49 51 54 54 53 52 52 52 52 51 52 52 53 53 54 54 54 54 54 54
15 16 17 18 19 18 21 19 19 20 19 20 22 23 24 28 28 28 29 31 32 34 36 37 38 38 40 41 42 44 46 46 47 48 51 54 54 52 52 52 51 51 51 51 52 51 52 53 54 54 54 54
13 16 16 17 20 16 25 19 18 18 20 22 19 23 23 26 25 26 27 29 30 33 35 36 37 37 38 39 41 43 45 45 46 47 48 49 52 53 52 51 51 51 51 50 51 51 51 51 52 52 53 53
13 14 15 16 16 15 26 17 16 17 18 17 19 21 23 24 24 23 24 26 28 31 33 34 36 36 37 38 39 41 43 44 44 45 47 47 47 49 51 52 52 51 50 50 49 50 51 50 50 51 52 52
13 14 15 16 16 16 21 18 16 16 15 15 15 16 21 21 24 22 22 23 26 29 31 33 34 35 36 36 38 40 40 42 44 44 45 45 46 46 46 48 52 51 49 49 49 50 50 51 51 51 50 51
10 12 13 18 14 16 16 18 18 17 15 16 14 16 19 19 23 21 20 21 24 27 30 31 32 33 34 35 36 38 40 41 42 43 44 44 45 45 45 44 45 51 49 49 48 49 49 50 50 50 50 51
14 13 16 18 13 15 17 19 14 15 16 20 14 16 19 18 21 21 19 20 22 25 27 29 30 31 32 33 35 36 38 40 40 41 42 43 43 44 45 45 44 43 43 47 47 47 48 49 48 49 50 51
14 15 17 15 14 15 21 14 14 13 12 15 15 16 18 18 21 18 18 19 21 25 23 26 28 29 31 32 32 35 37 38 38 39 41 42 42 42 43 44 44 43 42 41 42 45 46 47 47 47 48 49
16 15 17 21 18 20 17 14 14 17 12 15 15 14 17 18 20 18 18 19 20 21 20 21 24 27 28 29 31 34 36 36 37 38 38 39 40 40 41 41 42 42 41 42 41 40 39 44 46 46 46 48
13 14 13 16 17 18 22 18 14 14 13 13 12 12 15 19 20 18 18 19 19 20 19 19 20 22 25 27 30 33 34 35 35 36 36 38 38 39 40 40 41 41 41 41 40 39 37 35 36 44 46 46
13 12 12 12 21 17 21 17 18 14 14 14 14 14 15 18 20 19 18 18 18 18 17 18 18 19 22 25 28 30 31 32 34 34 34 36 37 37 38 39 39 40 39 39 39 39 37 36 34 33 40 45
15 14 12 11 12 15 18 16 15 15 15 16 15 15 16 18 21 18 19 19 17 17 17 17 17 18 20 22 25 28 29 30 31 32 33 33 35 37 37 37 37 37 38 38 38 39 39 38 35 32 30 34
13 13 11 14 12 18 14 14 15 15 15 15 15 17 18 20 19 21 20 19 18 17 18 17 16 16 18 20 22 25 27 28 29 30 31 31 33 35 36 36 36 36 36 37 37 38 39 40 38 35 30 29
15 14 12 11 12 12 13 13 13 15 14 16 15 17 20 19 19 19 20 21 19 17 17 16 15 15 17 19 19 20 22 24 26 28 29 29 31 33 35 37 36 35 35 35 36 37 38 39 40 39 35 31
15 14 15 13 11 13 13 12 16 13 14 15 16 19 18 18 18 18 21 19 19 18 17 17 15 15 17 17 18 19 20 22 23 25 27 28 30 32 33 35 36 35 34 35 36 36 38 39 39 40 39 34
15 13 13 13 13 13 13 14 17 15 14 16 15 17 18 18 16 19 19 20 19 18 19 18 15 15 16 17 19 19 19 20 22 24 25 27 29 30 30 32 35 33 34 34 33 36 36 37 39 40 40 39
15 15 13 12 12 13 13 11 11 13 13 15 21 18 17 17 15 17 17 19 18 19 18 17 17 15 16 17 18 20 19 19 23 21 22 25 27 28 30 30 34 33 32 31 30 30 31 34 38 40 39 39
16 15 14 12 12 11 12 11 11 11 13 13 16 16 16 16 16 16 16 17 18 17 17 17 17 16 16 17 19 18 16 16 16 19 21 23 25 26 28 29 32 32 32 29 31 31 32 32 32 34 36 38
16 16 15 15 15 14 11 10 16 13 11 10 11 12 14 14 16 17 16 17 17 16 16 16 17 17 16 17 18 17 16 15 14 17 19 21 24 25 24 26 29 32 31 31 29 26 29 30 31 30 32 31
15 16 16 16 15 16 14 13 11 10 11 10 13 14 12 13 14 16 16 17 17 18 16 15 15 15 15 16 16 17 16 14 14 15 17 20 21 21 23 24 27 28 30 31 31 28 26 26 28 29 28 30
15 16 15 12 15 12 13 11 11 12 10 10 9 7 9 12 14 15 15 16 16 17 18 16 15 14 14 14 15 15 13 12 14 14 15 18 19 19 22 23 25 25 27 29 30 29 30 29 25 27 28 28
17 14 10 9 11 12 10 10 12 9 8 9 9 11 10 11 13 15 14 13 15 16 17 16 16 15 14 13 13 17 13 10 11 12 14 19 18 19 22 20 23 24 24 26 28 28 29 29 30 30 28 25